COSMOS 2041

Satellite information

Favourite Embed

Satellite Type and Status

PAYLOADIN ORBIT

Key statistics

Satellite COSMOS 2041 at a glance.

Uptime

13240

Days in orbit

Revolutions

≈ 12.6

Per day

Orbit

LEO

Low Earth Orbit

Inclination

82.6

Latest

Satellite identification and parameters

Extended collection of information and parameters for COSMOS 2041.

Object identification

Identified? True

Debris? False

Object name: COSMOS 2041

International designator: 1989-074D

Object number (NORAD): 20235

Object ID (CCSDS): 20235

Country: COMMONWEALTH OF INDEPENDENT STATES (CIS)

Current information (Y/N): Y

RCS size: LARGE

Orbital parameters

Period: 113.848 minutes

Inclination: 82.5836 deg

SMA: 7781.165 km

Apoapsis: 1409.85 km

Periapsis: 1396.21 km

RAAN: 328.6193 deg

Eccentricy: 0.0008765

Argument of periapsis: 151.8651 deg

Mean anomaly: 328.6462 deg

Mean motion: 12.64840663 rev/day

Mean motion (dot): 0.00000037 rev/day2

B* drag term: 0.00013973938 1/REarth

Two-line elements (TLE)

Creation date: Dec. 14, 2025, 3:07 a.m.

Reference frame: TEME

Reference center: EARTH

Epoch: Dec. 13, 2025, 11:44 a.m. UTC

TLE line 0: 0 COSMOS 2041

TLE line 1: 1 20235U 89074D 25347.48927903 .00000037 00000-0 13974-3 0 9990

TLE line 2: 2 20235 82.5836 328.6193 0008765 151.8651 328.6462 12.64840663673031

Live tracking on map

Real-time ground track for satellite COSMOS 2041.

In-orbit conjunctions

A list of the most updated potential collisions computed for object COSMOS 2041.

Target Orbit TCA Probability of collision Miss distance Type
DELTA 1 DEB SSO 2024-07-13 14:34:02 0.0002003741 343.0 (m) DEBRIS

Associated space launch

Second generation store-dump military communications satellite

COSMOS 2041 was lifted into orbit during the mission ‘Tsiklon-3 | Strela-3 43 to 48’, on board a Tsiklon-3 space rocket.

The launch took place on Sept. 14, 1989, 9:49 a.m. from 32/1.

For more information about the launch, click the button.

Launch to space Tsiklon-3 | Strela-3 43 to 48
Tsiklon-3 | Strela-3 43 to 48

Agency: N/A

Status: Launch Successful

Launch date: Sept. 14, 1989, 9:49 a.m. UTC

Rocket: Tsiklon-3

Launch pad: 32/1

Location: Plesetsk Cosmodrome, Russian Federation

...

Latest news about this satellite

There are no fresh news available about this satellite. Check back as we update our databases every day.


Newsletter sign-up

Weekly statistics, charts and insights to help you stay on top of the space industry.